FENGYUN 1C DEB, 30365

Orbit data source: Space-Track

FENGYUN 1C DEB, 30365 is space debris in SSO originally from a launch on Mon, 10 May 1999 UTC launched from the Taiyaun Space Center, China (TSC). Fengyun 1C debris stems from the Chinese weather satellite Fengyun-1C, which was intentionally destroyed by a Chinese anti-satellite missile in 2007. This event dramatically increased the amount of space debris, with thousands of trackable fragments posing hazards to satellites and human spaceflight. The Fengyun 1C debris cloud has become a focal point in discussions about space sustainability and the need for international regulations to prevent the creation of new debris.

Loading next visibility...
Identifier
30365, 1999-025ACC
Orbit
SSO
Country
Flag of CNCN / PRC
Related business
Manufacturer
Unknown
Mission
Spacecraft
Bus & Motor
Unknown
Mass
Unknown
Launch date (UTC)
1999-05-10 (27 years ago)
Launch vehicle
Unknown
Launch site
Taiyaun Space Center, China (TSC)
Object type
Payload
Rocket body
Debris
Shape & HBR
Unknown shape, 0.1 m
Radar Cross Section
Medium (>0.1 m² and <1 m²)

Expand to show TLE details & history
Last TLE update: 14 hours ago

TLE from 14 hours ago
0 FENGYUN 1C DEB
1 30365U 99025ACC 26208.96476027  .00000352  00000-0  16318-3 0  9993
2 30365  98.6305 202.5416 0166513 175.1862 212.2210 14.19490418  8179
Epoch: 2026-07-27T23:09Z
TLE epoch observation values (Epoch: 2026-07-27T23:09:15.287Z)
Latitude
26.11939°
Longitude
-94.65851°
Altitude
932.326 km
Speed
7.335 km/s
True Right ascension
13h 13m 11s
True Declination
25° 59' 13"
Sunlit
Object was in daylight at epoch
Visualization orbit readout
Latitude
Unknown
Longitude
Unknown
Altitude
Unknown
Speed
Unknown
Apparent Right ascension
Unknown
Apparent Declination
Unknown
Sunlit
N/A
Visualization observer readout
Local Sidereal Time
02:42:37
Azimuth
Unknown
Elevation
Unknown
Doppler factor
Unknown
Orbital elements
Apogee altitude
944.16 km
Perigee altitude
704.302 km
Semi-major axis
7,202.368 km
Eccentricity
0.01665
Inclination
98.6305°
RAAN
202.5416°
Arg. of periapsis
175.1862°
True anomaly
211.2213°
Mean anomaly
212.221°
Eccentric anomaly
211.7194°
Mean motion
3.55083 °/min
Orbital period
101.38 mins
BSTAR
0.00016318
Loading maneuver chart data...
Computing Atmospheric mass density...

Documentation

Showing up to 5 results
|